This is the latest recevied weather packets stored in our database for station/object K0SNA. If no packets are shown the sender has not sent any weather packets the latest 10 day(s).
| Time | Temp. | Humidity | Pressure | Rain* | Wind** | Luminosity | Snow |
|---|---|---|---|---|---|---|---|
| 1777942442 | 10° C | 43% | 1005 hPa | 0 mm | - | 14 W/m² | - |
| 1777942140 | 10° C | 43% | 1004.8 hPa | 0 mm | - | 14 W/m² | - |
| 1777941836 | 10° C | 42% | 1004.8 hPa | 0 mm | - | 15 W/m² | - |
| 1777941533 | 10.56° C | 42% | 1004.5 hPa | 0 mm | - | 19 W/m² | - |
| 1777941230 | 10.56° C | 41% | 1004.7 hPa | 0 mm | - | 21 W/m² | - |
| 1777940926 | 11.11° C | 40% | 1004.5 hPa | 0 mm | - | 30 W/m² | - |
| 1777940623 | 11.11° C | 40% | 1004.5 hPa | 0 mm | - | 36 W/m² | - |
| 1777940321 | 11.11° C | 40% | 1004.3 hPa | 0 mm | - | 50 W/m² | - |
| 1777940018 | 11.11° C | 40% | 1004.1 hPa | 0 mm | - | 39 W/m² | - |
| 1777939715 | 11.11° C | 40% | 1004.3 hPa | 0 mm | - | 46 W/m² | - |
| 1777939413 | 11.11° C | 39% | 1003.9 hPa | 0 mm | - | 52 W/m² | - |
| 1777939110 | 11.67° C | 41% | 1004 hPa | 0 mm | - | 58 W/m² | - |
| 1777938807 | 11.67° C | 40% | 1003.9 hPa | 0 mm | - | 61 W/m² | - |
| 1777938503 | 11.67° C | 41% | 1004 hPa | 0 mm | - | 68 W/m² | - |
| 1777938201 | 11.67° C | 40% | 1003.8 hPa | 0 mm | - | 64 W/m² | - |
| 1777937897 | 11.67° C | 40% | 1004.1 hPa | 0 mm | - | 78 W/m² | - |
| 1777937593 | 11.67° C | 39% | 1003.9 hPa | 0 mm | - | 82 W/m² | - |
| 1777937290 | 11.67° C | 39% | 1003.8 hPa | 0 mm | - | 70 W/m² | - |
| 1777936987 | 12.22° C | 39% | 1003.7 hPa | 0 mm | - | 90 W/m² | - |
| 1777936684 | 11.67° C | 39% | 1003.9 hPa | 0 mm | - | 106 W/m² | - |
| 1777936380 | 12.22° C | 41% | 1003.6 hPa | 0 mm | - | 95 W/m² | - |
| 1777936076 | 12.22° C | 40% | 1003.7 hPa | 0 mm | - | 109 W/m² | - |
| 1777935774 | 12.22° C | 42% | 1003.4 hPa | 0 mm | - | 87 W/m² | - |
| 1777935473 | 12.22° C | 42% | 1003.5 hPa | 0 mm | - | 110 W/m² | - |
| 1777935169 | 12.22° C | 41% | 1003.4 hPa | 0 mm | - | 101 W/m² | - |
* Rain latest hour (hover to see other rain measurements)
** Current wind speed in m/s (hover to see current wind gust speed)